Regional Weather Roundup
Issued by NWS

Home | Current Version | Previous Version | Text Only | Print | Product List | Glossary Off
Versions: 1 2 3 4 5 6 7 8 9 10 11 12 13 14 15 16 17 18 19 20 21 22 23 24 25 26 27 28 29 30 31 32 33 34 35 36 37 38 39 40 41 42 43 44 45 46 47 48 49 50

000
ASUS43 KDTX 221110
RWRMI
MICHIGAN HOURLY REGIONAL WEATHER ROUNDUP
NATIONAL WEATHER SERVICE DETROIT/PONTIAC MI
600 AM EST WED NOV 22 2017

NOTE: "FAIR" INDICATES FEW OR NO CLOUDS BELOW 12,000 FEET WITH NO
SIGNIFICANT WEATHER AND/OR OBSTRUCTION TO VISIBILITY.

MIZ047>049-052>055-059>063-066>070-074>076-081>083-221200-
SOUTHEAST LOWER MICHIGAN

CITY           SKY/WX    TMP DP  RH WIND       PRES   REMARKS
ADRIAN         CLOUDY    30  20  66 N7        30.21R WCI  23
ALMA           CLOUDY    29  17  61 W7        30.22R WCI  22
ANN ARBOR      CLOUDY    30  19  63 NW12      30.20R WCI  20
BAD AXE        CLOUDY    29  17  61 NW13G18   30.18R WCI  19
CARO           MOCLDY    28  21  73 W9        30.19R WCI  19
DETROIT CITY   CLOUDY    31  17  56 N15       30.19R WCI  20
DETROIT        FLURRIES  31  19  61 N13       30.20R WCI  21
FLINT          CLOUDY    29  17  61 W13       30.21R WCI  19
GROSSE ILE     CLOUDY    32  20  62 N10       30.19R WCI  24
HILLSDALE      CLOUDY    30  19  64 NW10      30.19R WCI  21
HOWELL         CLOUDY    29  17  61 NW8       30.20R WCI  21

CITY           SKY/WX    TMP DP  RH WIND       PRES   REMARKS
JACKSON        CLOUDY    30  18  60 NW8       30.20R WCI  22
LAMBERTVILLE   CLOUDY    33  23  64 NW6       30.20R WCI  28
LANSING        CLOUDY    28  17  63 NW7       30.23R WCI  21
LAPEER         CLOUDY    29  19  65 NW8       30.19R WCI  22
MASON          CLOUDY    30  19  64 N12       30.22R WCI  20
MONROE         CLOUDY    33  20  59 N7        30.19R WCI  27
MT. CLEMENS    CLOUDY    31  22  71 NW13      30.17R WCI  21
PONTIAC        CLOUDY    29  18  63 NW13      30.17R WCI  19
PORT HOPE        N/A     30  18  60 NW18G25   30.15R WCI  18
PORT HURON     CLOUDY    30  18  59 NW10G20   30.17R WCI  21
TRI CITIES     CLOUDY    29  19  66 W9        30.22R WCI  20
MIDLAND        CLOUDY    30  19  64 W5        30.21R WCI  25
TROY           CLOUDY    33  19  56 NW12      30.20R WCI  24
SAGINAW HB     CLOUDY    30  19  64 W8        30.21R WCI  23
$$
MIZ043>046-050>051-056>058-064>065-071>073-077>080-221200-
SOUTHWEST LOWER MICHIGAN

CITY           SKY/WX    TMP DP  RH WIND       PRES   REMARKS
BATTLE CREEK   CLOUDY    29  18  63 N12       30.23R WCI  19
BENTON HARBOR  CLOUDY    33  19  56 VRB7      30.25R WCI  27
BIG RAPIDS     CLOUDY    28  17  64 NW5       30.21R WCI  23
COLDWATER      CLOUDY    31  19  61 N10       30.21R WCI  22
FREMONT        CLOUDY    29  18  64 NW9       30.23R WCI  21
HOLLAND        CLOUDY    30  18  60 N5        30.25R WCI  25
GRAND RAPIDS   CLOUDY    29  19  66 N7        30.24R WCI  22
IONIA          CLOUDY    29  17  61 NW3       30.23R
KALAMAZOO      CLOUDY    29  15  56 N12       30.24R WCI  19
LUDINGTON      CLOUDY    29  17  61 N7        30.25R WCI  22
MARSHALL       CLOUDY    29  17  59 NW7       30.22R WCI  22
MOUNT PLEASANT CLOUDY    30  17  59 W7        30.21R WCI  23
MUSKEGON       CLOUDY    31  18  58 N9        30.26R WCI  23
SOUTH HAVEN    CLOUDY    31  19  61 NE8       30.25R WCI  24
$$
MIZ016>042-221200-
NORTHERN LOWER MICHIGAN

CITY           SKY/WX    TMP DP  RH WIND       PRES   REMARKS
ALPENA         CLOUDY    25  21  85 CALM      30.17R
BEAVER ISLAND  MOCLDY    28  21  74 NW9       30.20R WCI  19
BELLAIRE       LGT SNOW  27  25  91 NW5       30.21R WCI  22
CADILLAC       CLOUDY    26  15  62 NW7       30.17R WCI  18
CHARLEVOIX     CLOUDY    30  15  53 NW16G22   30.22R WCI  18
FRANKFORT      CLOUDY    30  17  57 NW7       30.23R WCI  23
GAYLORD        FLURRIES  24  17  74 CALM      30.14R
GRAYLING       FLURRIES  25  20  83 W3        30.17R
HARBOR SPRINGS CLOUDY    28  15  57 NW6       30.18R WCI  22
HOUGHTON LAKE  FLURRIES  25  21  85 NW8       30.18R WCI  16
MANISTEE       FLURRIES  29  19  66 NW7       30.24R WCI  22
OSCODA         PTCLDY    21  16  79 CALM      30.18R
PELLSTON       CLOUDY    27  18  69 N9        30.18R WCI  18
ROGERS CITY    CLOUDY    26  19  74 NW7       30.18R WCI  18
TRAVERSE CITY  LGT SNOW  28  21  75 NW9G21    30.21R WCI  19
$$
MIZ007>008-015-221200-
EASTERN UPPER MICHIGAN

CITY           SKY/WX    TMP DP  RH WIND       PRES   REMARKS
KINROSS        FLURRIES  20  17  88 S5        30.16R WCI  13
MACKINAC ISLAN PTCLDY    26  20  79 W7        30.17R WCI  18
NEWBERRY       CLOUDY    22  21  97 W6        30.16R WCI  14
S. S. MARIE    LGT SNOW  21  17  84 SE5       30.15R FOG     WCI  15
MUNISING         N/A     29  22  75 NW8       30.19  WCI  21
$$
MIZ004>006-011>014-085-221200-
CENTRAL UPPER MICHIGAN

CITY           SKY/WX    TMP DP  RH WIND       PRES   REMARKS
MANISTIQUE     FLURRIES  21  16  81 W7        30.21R WCI  13
ESCANABA       MOCLDY    22  16  78 W8        30.25R WCI  12
MENOMINEE      CLOUDY    25  14  63 VRB5      30.28R WCI  19
SAWYER-GWINN   CLOUDY    21  17  82 W6        30.19S WCI  14
$$
MIZ001>003-009>011-084-221200-
WESTERN UPPER MICHIGAN

CITY           SKY/WX    TMP DP  RH WIND       PRES   REMARKS
IRON MOUNTAIN  CLOUDY    22  13  68 NW5       30.21R WCI  16
HOUGHTON       CLOUDY    24  15  68 W9        30.17S WCI  14
IRONWOOD       FLURRIES  17  12  80 SW12      30.24R WCI   4
$$

ABBREVIATIONS USED IN REMARKS
   TC - TEMPERATURE IN CELSIUS
  WCI - WIND CHILL INDEX
   HX - HEAT INDEX
  VSB - VISIBILITY





USA.gov is the U.S. government's official web portal to all federal, state and local government web resources and services.